Regional Weather Roundup
Issued by NWS

Home | Current Version | Previous Version | Text Only | Print | Product List | Glossary On
Versions: 1 2 3 4 5 6 7 8 9 10 11 12 13 14 15 16 17 18 19 20 21 22 23 24 25 26 27 28 29 30 31 32 33 34 35 36 37 38 39 40 41 42 43 44 45 46 47 48 49 50
000
ASUS43 KMKX 211120
RWRWI

WISCONSIN REGIONAL WEATHER ROUNDUP
NATIONAL WEATHER SERVICE MILWAUKEE/SULLIVAN WI
600 AM CDT MON MAY 21 2018

NOTE: "FAIR" INDICATES FEW OR NO CLOUDS BELOW 12,000 FEET WITH NO
SIGNIFICANT WEATHER AND/OR OBSTRUCTIONS TO VISIBILITY.

WIZ001-002-006>008-014>016-023>028-211200-
NORTHWEST WISCONSIN

CITY           SKY/WX    TMP DP  RH WIND       PRES   REMARKS
SUPERIOR ARPT  FAIR      33  33 100 CALM      30.18S
ASHLAND        FAIR      40  33  76 CALM      30.19S
HAYWARD        FAIR      39  37  92 N5        30.19S
SIREN            N/A     39  36  86 CALM      30.15F
CUMBERLAND     MOCLDY    45  39  81 E3        30.16F
RICE LAKE      FAIR      44  42  94 N3        30.18F
CHETEK         FAIR      48  41  78 E7        30.17S
LADYSMITH      FAIR      45  36  69 E6        30.19F
EAU CLAIRE     CLOUDY    50  43  77 NE5       30.14F
MENOMONIE      CLOUDY    54  44  69 NE6       30.14F
NEW RICHMOND   CLOUDY    54  44  68 E3        30.14S
OSCEOLA        LGT RAIN  53  44  70 E3        30.16S
$$

WIZ003>005-009-010-017-018-211200-
NORTH CENTRAL WISCONSIN

CITY           SKY/WX    TMP DP  RH WIND       PRES   REMARKS
MANITOWISH WTR FAIR      34  34 100 CALM      30.22S
ARBOR VITAE    FAIR      39  37  92 CALM      30.21F
WOODRUFF       FAIR      39  37  92 CALM      30.21F
RHINELANDER    FAIR      37  35  92 CALM      30.21F
EAGLE RIVER    FAIR      34  34 100 CALM      30.22S
LAND O LAKES   FAIR      32  32 100 CALM      30.24S
PHILLIPS       FAIR      37  36  94 CALM      30.20S
TOMAHAWK       FAIR      32  31  96 CALM      30.21S
MEDFORD        FAIR      38  33  80 NE7       30.17F WCI  33
MERRILL        FAIR      35  33  95 CALM      30.20S
$$

WIZ029-030-035-036-043>047-211200-
CENTRAL WISCONSIN

CITY           SKY/WX    TMP DP  RH WIND       PRES   REMARKS
WAUSAU         FAIR      39  36  89 CALM      30.17F
MOSINEE        MOCLDY    41  30  65 CALM      30.18F
MARSHFIELD     FAIR      46  35  65 E7        30.15F
STEVENS POINT  NOT AVBL
WAUPACA        FAIR      43  39  86 N5        30.18F
WAUTOMA        FAIR      44  37  76 N6        30.17F
WISC RAPIDS    FAIR      47  31  53 E7        30.16F
CAMP DOUGLAS   CLOUDY    48  42  80 E3        30.14F
$$

WIZ011>013-019>022-031-037>040-048>050-211200-
NORTHEAST WISCONSIN

CITY           SKY/WX    TMP DP  RH WIND       PRES   REMARKS
ANTIGO         FAIR      37  32  82 NE5       30.20S WCI  33
SHAWANO        FAIR      42  39  89 NE6       30.20F
OCONTO         FAIR      34  34  98 CALM      30.21S
STURGEON BAY   FAIR      42  33  70 CALM      30.22F
GREEN BAY      FAIR      42  37  82 NE3       30.19F
MANITOWOC      FAIR      41  37  86 N3        30.20S
APPLETON       PTCLDY    45  28  53 NE7       30.16F
CLINTONVILLE   FAIR      39  35  87 NE5       30.19F
OSHKOSH        FAIR      51  44  77 E3        30.16F
$$

WIZ032>034-041-042-053>061-211200-
SOUTHWEST WISCONSIN

CITY           SKY/WX    TMP DP  RH WIND       PRES   REMARKS
LA CROSSE      CLOUDY    57  48  72 E3        30.12S
SPARTA         CLOUDY    51  44  77 E5        30.14S
VIROQUA        CLOUDY    52  44  75 E7        30.12S
BOSCOBEL       LGT RAIN  54  45  71 VRB3      30.12S
PRAIRIE DU CHI DRIZZLE   52  45  76 CALM      30.11S
PLATTEVILLE    CLOUDY    51  50  99 E12       30.10F
$$

WIZ056-057-062-063-064-067-068-211200-
SOUTH CENTRAL WISCONSIN

CITY           SKY/WX    TMP DP  RH WIND       PRES   REMARKS
REEDSBURG      MOCLDY    50  37  62 NE5       30.14S
BARABOO/DELLS  CLOUDY    49  37  64 NE3       30.13F
LONE ROCK      CLOUDY    53  45  74 E6        30.13S
MINERAL POINT  CLOUDY    52  48  87 E7        30.11F
MADISON        CLOUDY    50  42  74 E6        30.13F
MIDDLETON      CLOUDY    52  45  78 E3        30.14S
WATERTOWN      CLOUDY    49  46  88 E6        30.14F
MONROE         RAIN      46  46 100 NE7       30.12S
JANESVILLE     LGT RAIN  50  50 100 NE6       30.13S
$$

WIZ051-052-058>065-066-070>072-211200-
SOUTHEAST WISCONSIN

CITY           SKY/WX    TMP DP  RH WIND       PRES   REMARKS
MILWAUKEE      CLOUDY    47  42  83 NE6       30.17S
WAUKESHA       MOCLDY    45  39  81 NE5       30.17S
MILWAUKEE/TIMM CLOUDY    45  36  70 CALM      30.18S
RACINE         CLOUDY    46  42  86 NE5       30.18S
BURLINGTON     DRIZZLE   47  44  88 NE6       30.14F
KENOSHA        CLOUDY    48  44  86 NE7       30.15F
FOND DU LAC    MOCLDY    48  39  71 NE5       30.16F
SHEBOYGAN      FAIR      43  39  86 NE5       30.18S
WEST BEND      FAIR      43  41  93 CALM      30.17S
JUNEAU         CLOUDY    48  40  73 CALM      30.17R
$$

LSZ147-162-211200-
LAKE SUPERIOR

STATION/POSITION TIME  TEMP    WIND        PRES    WAVE
                       AIR SEA DIR/SP/G            HT/PER
                 (UTC) (F)     (DEG/KT/KT) (MB)    (FT/S)
W MID LAKE BUOY  1050   41 34  220/  4/  6 1022.7R   0
DEVILS ISLAND    1100   45     360/  1/  2 1022.4R
SAXON HARBOR     1040   44     190/  4/  6 1021.3S
$$

LMZ867-665-643>646-211200-
LAKE MICHIGAN

STATION/POSITION TIME  TEMP    WIND        PRES    WAVE
                       AIR SEA DIR/SP/G            HT/PER
                 (UTC) (F)     (DEG/KT/KT) (MB)    (FT/S)
NORTHPORT PIER   1040   42                 1023.7R
KEWAUNEE LAKESHO 1100   46      30/  6/  8 1022.1
SHEBOYGAN LAKESH 1100   44      10/  8/  9 1022.6S
PORT WASHINGTON  1040   47      30/  5/  7 1023.0S
MILWAUKEE LAKESH 1100   45      30/  7/  9   N/A
KENOSHA   LAKESH 1100   46                 1021.0
$$

TC  - TEMPERATURE IN CELSIUS
VSB - VISIBILITY IN STATUTE MILES
WCI - WIND CHILL INDEX
HX  - HEAT INDEX





USA.gov is the U.S. government's official web portal to all federal, state and local government web resources and services.